Home   Weather   Sunnyvale   Past weeks

Flag for USA Past Weather in Sunnyvale, California, USA — Yesterday and Last 2 Weeks

Now
63 °F

Partly sunny.


Feels Like: 63 °F
Forecast: 55 / 69 °F
Wind: 9 mph from North

Location: Moffett Field

Current Time: May 28, 2017 at 1:19:41 pm

Latest Report: May 28, 2017 at 12:26 pm


Visibility: 10 mi

Pressure: 30.10 "Hg

Humidity: 73%

Dew Point: 54 °F

Location of SunnyvaleLocation

Past Weather in Sunnyvale — Graph

°F

Sunnyvale Temperature Yesterday

Maximum temperature yesterday: 67 °F (at 12:56 pm)
Minimum temperature yesterday: 54 °F (at 12:15 am)
Average temperature yesterday: 59 °F

High & Low Weather Summary for the Past Weeks

 TemperatureHumidityPressure
High85 °F (May 19, 2:56 pm)93% (May 22, 5:56 am)30.13 "Hg (May 22, 5:56 am)
Low48 °F (May 15, 3:56 am)24% (May 18, 3:56 pm)29.73 "Hg (May 24, 7:56 pm)
Average61 °F68%29.97 "Hg
* Reported May 13 12:56 pm — May 28 12:26 pm, Sunnyvale. Weather by CustomWeather, © 2017

Note: Actual official high and low records may vary slightly from our data, if they occured in-between our weather recording intervals... More about our weather records

Advertising

Sunnyvale Weather History for the Previous 24 Hours

Scroll right to see more
 ConditionsComfort  
Time TempWeatherWind HumidityBarometerVisibility
12:26 pm
Sun, May 28
63 °FPartly sunny.9 mph73%30.10 "Hg10 mi
11:31 am62 °FScattered clouds.8 mph70%30.11 "Hg10 mi
10:56 am62 °FPartly sunny.8 mph70%30.12 "Hg10 mi
9:56 am59 °FOvercast.6 mph75%30.13 "Hg10 mi
9:16 am57 °FOvercast.8 mph81%30.12 "Hg10 mi
8:56 am56 °FOvercast.7 mph84%30.12 "Hg10 mi
7:56 am56 °FOvercast.5 mph84%30.12 "Hg10 mi
6:56 am56 °FOvercast.5 mph81%30.11 "Hg10 mi
6:18 am56 °FOvercast.5 mph81%30.10 "Hg10 mi
5:56 am56 °FOvercast.5 mph81%30.10 "Hg10 mi
4:56 am56 °FOvercast.3 mph84%30.09 "Hg10 mi
4:23 am56 °FOvercast.3 mph84%30.09 "Hg10 mi
3:56 am56 °FOvercast.5 mph84%30.09 "Hg10 mi
2:56 am56 °FOvercast.5 mph84%30.10 "Hg10 mi
1:56 am56 °FOvercast.5 mph84%30.11 "Hg10 mi
12:56 am56 °FOvercast.6 mph81%30.12 "Hg10 mi
11:56 pm
Sat, May 27
55 °FClear.6 mph87%30.12 "Hg10 mi
10:56 pm56 °FClear.8 mph84%30.12 "Hg10 mi
9:56 pm57 °FClear.7 mph81%30.11 "Hg10 mi
8:56 pm58 °FClear.8 mph78%30.09 "Hg10 mi
7:56 pm61 °FSunny.14 mph75%30.08 "Hg10 mi
6:56 pm63 °FSunny.20 mph70%30.08 "Hg10 mi
5:56 pm65 °FSunny.21 mph66%30.08 "Hg10 mi
4:56 pm66 °FSunny.20 mph63%30.09 "Hg10 mi
3:56 pm67 °FSunny.16 mph61%30.09 "Hg10 mi
2:56 pm66 °FSunny.13 mph61%30.10 "Hg10 mi
1:56 pm66 °FSunny.14 mph61%30.11 "Hg10 mi
Weather by CustomWeather, © 2017

See weather overviewHow to use our weather pages